Weather History for Athens, OH

Change the Weather History Date:

Tuesday, January 22, 2013

  Actual Average (KPKB) Record (KPKB)
Temperature  
Mean Temperature 12 °F 32 °F  
Max Temperature 18 °F 40 °F 74 °F (1999)
Min Temperature 5 °F 23 °F -15 °F (1936)
Degree Days  
Heating Degree Days 54 34  
Month to date heating degree days 741  
Since 1 July heating degree days 2651  
Cooling Degree Days 0 0  
Month to date cooling degree days 0  
Year to date cooling degree days 0  
Moisture  
Dew Point -2 °F    
Average Humidity 53    
Maximum Humidity 72    
Minimum Humidity 36    
Precipitation  
Precipitation 0.00 in 0.09 in 1.17 in (1966)
Month to date precipitation 2.08  
Year to date precipitation 2.08  
Sea Level Pressure  
Sea Level Pressure 30.28 in    
Wind  
Wind Speed 9 mph (West)    
Max Wind Speed 16 mph    
Max Gust Speed 25 mph    
Visibility 10 miles    
Events      
T = Trace of Precipitation, MM = Missing Value Source: NWS Daily Summary

Daily Weather History Graph

Daily Weather History Graph

Search for Another Location

Airport:

Trip Planner

Search our weather history database for the weather conditions in past years. The results will help you decide how hot, cold, wet, or windy it might be!

Date:

Astronomy

Jan. 22, 2013 Rise Set
Actual Time 7:43 AM EST 5:38 PM EST
Civil Twilight 7:14 AM EST 6:07 PM EST
Nautical Twilight 6:41 AM EST 6:39 PM EST
Astronomical Twilight 6:09 AM EST 7:11 PM EST
Moon 2:00 PM EST (1/22) 4:03 AM EST (1/22)
Length of Visible Light 10h 52m
Length of Day
9h 55m
Waxing Gibbous, 82% of the Moon is Illuminated
Jan 22
Waxing Gibbous
Jan 26
Full
Feb 3
Last Quarter
Feb 10
New
Feb 17
First Quarter

Hourly Weather History & Observations

Time (EST) Temp. Windchill Dew Point Humidity Pressure Visibility Wind Dir Wind Speed Gust Speed Precip Events Conditions
12:15 AM 12.2 °F -2.5 °F -2.0 °F 53% 30.19 in 10.0 mi WNW 12.7 mph 25.3 mph N/A   Clear
12:35 AM 11.8 °F -0.7 °F -1.5 °F 55% 30.19 in 10.0 mi WNW 9.2 mph 16.1 mph N/A   Clear
12:55 AM 11.5 °F -4.1 °F -1.5 °F 56% 30.19 in 10.0 mi WNW 13.8 mph 17.3 mph N/A   Clear
1:15 AM 11.3 °F -3.6 °F -1.5 °F 57% 30.19 in 10.0 mi West 12.7 mph 17.3 mph N/A   Clear
1:35 AM 10.9 °F -4.1 °F -2.2 °F 56% 30.20 in 10.0 mi WNW 12.7 mph 20.7 mph N/A   Clear
1:55 AM 10.8 °F -2.8 °F -2.7 °F 55% 30.21 in 10.0 mi WNW 10.4 mph 20.7 mph N/A   Clear
2:15 AM 10.4 °F -4.1 °F -3.5 °F 54% 30.21 in 10.0 mi West 11.5 mph 16.1 mph N/A   Clear
2:55 AM 9.9 °F -3.1 °F -3.3 °F 55% 30.22 in 10.0 mi WNW 9.2 mph - N/A   Clear
3:15 AM 9.9 °F -4.0 °F -3.1 °F 56% 30.22 in 10.0 mi WNW 10.4 mph 18.4 mph N/A   Clear
3:35 AM 9.5 °F -1.5 °F -2.7 °F 58% 30.22 in 10.0 mi West 6.9 mph - N/A   Clear
3:55 AM 9.3 °F -4.6 °F -3.1 °F 57% 30.22 in 10.0 mi West 10.4 mph - N/A   Clear
4:15 AM 9.1 °F -5.6 °F -3.8 °F 56% 30.22 in 10.0 mi West 11.5 mph - N/A   Clear
4:35 AM 9.0 °F -3.2 °F -3.6 °F 57% 30.22 in 10.0 mi West 8.1 mph - N/A   Clear
4:55 AM 8.4 °F -1.6 °F -3.5 °F 59% 30.23 in 10.0 mi West 5.8 mph - N/A   Clear
5:15 AM 8.2 °F -3.0 °F -2.9 °F 60% 30.23 in 10.0 mi West 6.9 mph - N/A   Clear
5:35 AM 8.2 °F -0.3 °F -2.9 °F 60% 30.24 in 10.0 mi West 4.6 mph - N/A   Clear
5:55 AM 7.9 °F -0.7 °F -2.6 °F 62% 30.25 in 10.0 mi West 4.6 mph - N/A   Clear
6:15 AM 7.7 °F -2.4 °F -2.7 °F 62% 30.26 in 10.0 mi West 5.8 mph - N/A   Clear
6:35 AM 7.5 °F -1.1 °F -2.2 °F 65% 30.27 in 10.0 mi WSW 4.6 mph - N/A   Clear
6:55 AM 6.8 °F -2.0 °F -2.4 °F 66% 30.27 in 10.0 mi WSW 4.6 mph - N/A   Clear
7:15 AM 6.6 °F -2.2 °F -2.2 °F 67% 30.28 in 10.0 mi WSW 4.6 mph - N/A   Clear
7:35 AM 6.3 °F -2.6 °F -1.8 °F 69% 30.28 in 10.0 mi West 4.6 mph - N/A   Clear
7:55 AM 5.9 °F -1.1 °F -1.5 °F 72% 30.29 in 10.0 mi WSW 3.5 mph - N/A   Clear
8:15 AM 7.2 °F 0.3 °F -2.0 °F 66% 30.30 in 10.0 mi West 3.5 mph - N/A   Clear
8:35 AM 8.4 °F -2.8 °F -1.7 °F 64% 30.31 in 10.0 mi West 6.9 mph - N/A   Clear
8:55 AM 9.5 °F -5.2 °F -2.2 °F 59% 30.32 in 10.0 mi West 11.5 mph - N/A   Clear
9:15 AM 9.7 °F -5.7 °F -2.9 °F 57% 30.32 in 10.0 mi West 12.7 mph 17.3 mph N/A   Clear
9:35 AM 10.2 °F -2.7 °F -2.2 °F 57% 30.33 in 10.0 mi West 9.2 mph - N/A   Clear
9:55 AM 11.3 °F -2.9 °F -2.4 °F 54% 30.33 in 10.0 mi West 11.5 mph - N/A   Scattered Clouds
10:15 AM 12.0 °F -0.4 °F -3.6 °F 50% 30.33 in 10.0 mi NW 9.2 mph - N/A   Scattered Clouds
10:35 AM 11.7 °F -3.8 °F -4.4 °F 49% 30.34 in 10.0 mi WNW 13.8 mph 18.4 mph N/A   Scattered Clouds
10:55 AM 12.0 °F 1.5 °F -4.2 °F 48% 30.34 in 10.0 mi WNW 6.9 mph - N/A   Clear
11:15 AM 12.2 °F -1.8 °F -4.7 °F 47% 30.34 in 10.0 mi WNW 11.5 mph - N/A   Scattered Clouds
11:35 AM 12.9 °F -1.6 °F -3.6 °F 48% 30.34 in 10.0 mi West 12.7 mph 18.4 mph N/A   Scattered Clouds
11:55 AM 14.2 °F -0.6 °F -3.3 °F 46% 30.33 in 10.0 mi West 13.8 mph 19.6 mph N/A   Mostly Cloudy
12:15 PM 14.9 °F 0.9 °F -2.9 °F 45% 30.32 in 10.0 mi WNW 12.7 mph 21.9 mph N/A   Mostly Cloudy
12:35 PM 14.0 °F -0.8 °F -4.2 °F 44% 30.31 in 10.0 mi West 13.8 mph - N/A   Scattered Clouds
12:55 PM 14.9 °F -0.3 °F -3.6 °F 44% 30.30 in 10.0 mi WNW 15.0 mph - N/A   Clear
1:15 PM 14.7 °F 3.8 °F -3.6 °F 44% 30.30 in 10.0 mi West 8.1 mph - N/A   Scattered Clouds
1:35 PM 15.4 °F 5.6 °F -3.6 °F 43% 30.29 in 10.0 mi WNW 6.9 mph - N/A   Clear
1:55 PM 15.8 °F 2.7 °F -3.8 °F 42% 30.28 in 10.0 mi WSW 11.5 mph 18.4 mph N/A   Scattered Clouds
2:15 PM 16.5 °F 1.3 °F -3.5 °F 41% 30.28 in 10.0 mi West 16.1 mph 19.6 mph N/A   Scattered Clouds
2:35 PM 17.2 °F 5.2 °F -4.2 °F 39% 30.28 in 10.0 mi West 10.4 mph 16.1 mph N/A   Scattered Clouds
2:55 PM 16.9 °F 2.8 °F -4.5 °F 39% 30.27 in 10.0 mi West 13.8 mph - N/A   Scattered Clouds
3:15 PM 18.1 °F 7.1 °F -4.2 °F 37% 30.27 in 10.0 mi WSW 9.2 mph - N/A   Scattered Clouds
3:35 PM 18.0 °F 4.2 °F -4.0 °F 38% 30.27 in 10.0 mi WNW 13.8 mph 18.4 mph N/A   Clear
3:55 PM 18.3 °F 7.3 °F -4.4 °F 37% 30.28 in 10.0 mi West 9.2 mph - N/A   Clear
4:15 PM 18.3 °F 6.6 °F -4.7 °F 36% 30.29 in 10.0 mi West 10.4 mph 19.6 mph N/A   Clear
4:35 PM 18.1 °F 3.9 °F -4.2 °F 37% 30.29 in 10.0 mi West 15.0 mph - N/A   Clear
4:55 PM 17.6 °F 5.0 °F -4.2 °F 38% 30.29 in 10.0 mi WSW 11.5 mph - N/A   Clear
5:15 PM 17.1 °F 5.0 °F -3.3 °F 41% 30.29 in 10.0 mi West 10.4 mph 17.3 mph N/A   Scattered Clouds
5:35 PM 16.3 °F 4.9 °F -3.6 °F 41% 30.29 in 10.0 mi West 9.2 mph - N/A   Clear
5:55 PM 15.3 °F 6.6 °F -2.7 °F 45% 30.29 in 10.0 mi West 5.8 mph - N/A   Clear
6:15 PM 14.7 °F 7.3 °F -2.4 °F 47% 30.30 in 10.0 mi West 4.6 mph - N/A   Clear
6:35 PM 13.8 °F 4.9 °F -0.9 °F 52% 30.30 in 10.0 mi WSW 5.8 mph - N/A   Clear
6:55 PM 14.0 °F 6.5 °F -1.3 °F 51% 30.30 in 10.0 mi West 4.6 mph - N/A   Clear
7:15 PM 12.7 °F - -0.6 °F 55% 30.30 in 10.0 mi Calm Calm - N/A   Clear
7:35 PM 13.3 °F - -0.4 °F 55% 30.30 in 10.0 mi Calm Calm - N/A   Clear
7:55 PM 13.1 °F - 1.9 °F 61% 30.30 in 10.0 mi Calm Calm - N/A   Clear
8:15 PM 14.5 °F - 0.3 °F 53% 30.30 in 10.0 mi Calm Calm - N/A   Clear
8:35 PM 14.5 °F 8.8 °F 1.2 °F 56% 30.30 in 10.0 mi West 3.5 mph - N/A   Clear
8:55 PM 14.7 °F - 0.7 °F 54% 30.30 in 10.0 mi Calm Calm - N/A   Clear
9:15 PM 14.7 °F 9.0 °F 1.2 °F 55% 30.30 in 10.0 mi West 3.5 mph - N/A   Clear
9:35 PM 14.7 °F 9.0 °F -0.0 °F 52% 30.30 in 10.0 mi WSW 3.5 mph - N/A   Clear
9:55 PM 14.2 °F 6.7 °F 0.9 °F 56% 30.30 in 10.0 mi WSW 4.6 mph - N/A   Scattered Clouds
10:15 PM 13.1 °F - 1.0 °F 59% 30.30 in 10.0 mi Calm Calm - N/A   Scattered Clouds
10:35 PM 12.4 °F - 1.9 °F 63% 30.31 in 10.0 mi Calm Calm - N/A   Scattered Clouds
10:55 PM 12.0 °F - 1.6 °F 63% 30.32 in 10.0 mi Calm Calm - N/A   Clear
11:15 PM 12.0 °F - 3.7 °F 69% 30.31 in 10.0 mi Calm Calm - N/A   Clear
11:35 PM 12.2 °F - 3.7 °F 69% 30.31 in 10.0 mi Calm Calm - N/A   Clear
11:55 PM 12.0 °F - 4.1 °F 71% 30.31 in 10.0 mi Calm Calm - N/A   Clear